This is the latest recevied weather packets stored in our database for station/object G4WLC-1. If no packets are shown the sender has not sent any weather packets the latest 10 day(s).
| Time | Temp. | Humidity | Pressure | Rain* | Wind** | Luminosity | Snow |
|---|---|---|---|---|---|---|---|
| 1788620219 | 19.44° C | 68% | 1025.1 hPa | 0 mm | - | - | - |
| 1788619919 | 19.44° C | 67% | 1025.2 hPa | 0 mm | - | - | - |
| 1788619619 | 19.44° C | 65% | 1025.2 hPa | 0 mm | - | - | - |
| 1788619319 | 20° C | 65% | 1025.2 hPa | 0 mm | - | - | - |
| 1788619019 | 19.44° C | 66% | 1025.2 hPa | 0 mm | - | - | - |
| 1788618719 | 20° C | 66% | 1025.3 hPa | 0 mm | - | - | - |
| 1788618419 | 19.44° C | 65% | 1025.3 hPa | 0 mm | - | - | - |
| 1788618119 | 19.44° C | 67% | 1025.4 hPa | 0 mm | - | - | - |
| 1788617819 | 19.44° C | 68% | 1025.3 hPa | 0 mm | - | - | - |
| 1788617519 | 18.89° C | 66% | 1025.4 hPa | 0 mm | - | - | - |
| 1788617219 | 19.44° C | 66% | 1025.4 hPa | 0 mm | - | - | - |
| 1788616919 | 18.89° C | 68% | 1025.3 hPa | 0 mm | - | - | - |
| 1788616619 | 18.33° C | 67% | 1025.5 hPa | 0 mm | - | - | - |
| 1788616319 | 18.89° C | 68% | 1025.6 hPa | 0 mm | - | - | - |
| 1788616019 | 18.33° C | 67% | 1025.5 hPa | 0 mm | - | - | - |
| 1788615719 | 18.33° C | 66% | 1025.6 hPa | 0 mm | - | - | - |
| 1788615419 | 18.33° C | 69% | 1025.7 hPa | 0 mm | - | - | - |
| 1788615119 | 18.89° C | 67% | 1025.6 hPa | 0 mm | - | - | - |
| 1788614819 | 18.89° C | 67% | 1025.6 hPa | 0 mm | - | - | - |
| 1788614519 | 18.89° C | 67% | 1025.5 hPa | 0 mm | - | - | - |
| 1788614219 | 18.89° C | 65% | 1025.3 hPa | 0 mm | - | - | - |
| 1788613919 | 18.33° C | 65% | 1025.3 hPa | 0 mm | - | - | - |
| 1788613619 | 18.89° C | 65% | 1025.3 hPa | 0 mm | - | - | - |
| 1788613319 | 18.89° C | 64% | 1025.3 hPa | 0 mm | - | - | - |
| 1788613019 | 18.89° C | 63% | 1025.4 hPa | 0 mm | - | - | - |
* Rain latest hour (hover to see other rain measurements)
** Current wind speed in m/s (hover to see current wind gust speed)